Location: ??????????
(48.4699°N, 37.9573°E)
Time: 02:54:55
(UTC+00:00)

NOSS 3-1 (A) - Pass Details

Date: 20 January 2021
Orbit: 738 x 1474 km, 63.4° (Epoch: 22 February)

Event Time Altitude Azimuth Distance (km) Brightness Sun altitude
Rises 16:17:24 0° 317° (NW) 3,811 7.1 -21.0°
Reaches altitude 10° 16:19:58 10° 322° (NW) 2,959 6.4 -21.4°
Maximum altitude 16:26:57 51° 38° (NE) 1,530 4.2 -22.6°
Enters shadow 16:29:25 39° 84° (E) 1,834 4.4 -23.0°
